Tracking 19634 objects as of 23-May-2019
HD Live streaming from Space Station
objects crossing your sky now

COSMOS 1823 DEB

Track COSMOS 1823 DEB now!
10-day predictions


NORAD ID: 39833
Int'l Code: 1987-020FH
Perigee: 1,420.9 km
Apogee: 1,460.1 km
Inclination: 73.8 °
Period: 114.5 minutes
Semi major axis: 7811 km
RCS: 0.0132 m2 (small)
Launch date: February 20, 1987
Source: Commonwealth of Independent States (former USSR) (CIS)
Launch site: PLESETSK MISSILE AND SPACE COMPLEX (PKMTR)

Note: This is SATELLITE DEBRIS
aabbcc
Your satellite tracking list
Your tracking list is empty




NASA's NSSDC Master Catalog

Two Line Element Set (TLE):
1 39833U 87020FH  19142.04134981  .00000112  00000-0  77010-3 0  9992
2 39833  73.7772  38.4101 0025080 194.2886 165.7461 12.57480522733516
Source of the keplerian elements: AFSPC